ARG1975 SABE-SUMU

Flight info

Callsign ARG1975
Flight time 0h 48m
Altitude 17000
Route DORVO A305 TOKAM
Aircraft B738/M-SDE2E3FGHIRWXY/LB1

Departure

Time 2026-04-26 23:17
Airport Aeroparque Jorge Newbery (SABE)

Arrival

Time 2026-04-27 00:06
Airport Carrasco General Cesáreo L. Berisso International Airport (SUMU)
Time Latitude Longitude Altitude Speed Heading
2026-04-26 22:12 -34.55660 -58.41534 28 ft 0 kts
2026-04-26 22:51 -34.55661 -58.41534 24 ft 2 kts
2026-04-26 22:51 -34.55686 -58.41534 24 ft 4 kts 345°
2026-04-26 22:52 -34.55710 -58.41521 29 ft 4 kts 317°
2026-04-26 22:52 -34.55727 -58.41496 26 ft 4 kts 299°
2026-04-26 22:52 -34.55735 -58.41476 26 ft 0 kts 297°
2026-04-26 22:54 -34.55728 -58.41493 29 ft 5 kts 297°
2026-04-26 22:54 -34.55721 -58.41535 24 ft 5 kts 261°
2026-04-26 22:55 -34.55747 -58.41571 24 ft 9 kts 218°
2026-04-26 22:55 -34.55806 -58.41580 29 ft 9 kts 137°
2026-04-26 22:55 -34.55836 -58.41514 27 ft 9 kts 118°
2026-04-26 22:55 -34.55865 -58.41447 24 ft 9 kts 117°
2026-04-26 22:56 -34.55892 -58.41383 27 ft 8 kts 118°
2026-04-26 22:56 -34.55920 -58.41321 24 ft 8 kts 120°
2026-04-26 22:56 -34.55950 -58.41263 29 ft 8 kts 123°
2026-04-26 22:56 -34.55981 -58.41210 27 ft 8 kts 127°
2026-04-26 22:57 -34.56013 -58.41161 28 ft 7 kts 128°
2026-04-26 22:57 -34.56043 -58.41112 24 ft 7 kts 126°
2026-04-26 22:57 -34.56074 -58.41063 28 ft 8 kts 127°
2026-04-26 22:57 -34.56109 -58.41005 24 ft 8 kts 126°
2026-04-26 22:58 -34.56143 -58.40947 27 ft 8 kts 123°
2026-04-26 22:58 -34.56170 -58.40888 27 ft 8 kts 114°
2026-04-26 22:58 -34.56176 -58.40823 24 ft 8 kts 107°
2026-04-26 22:58 -34.56205 -58.40770 24 ft 7 kts 126°
2026-04-26 22:59 -34.56233 -58.40719 24 ft 7 kts 123°
2026-04-26 22:59 -34.56259 -58.40673 27 ft 5 kts 124°
2026-04-26 22:59 -34.56276 -58.40642 28 ft 3 kts 124°
2026-04-26 22:59 -34.56280 -58.40636 24 ft 0 kts 124°
2026-04-26 23:03 -34.56282 -58.40633 27 ft 3 kts 124°
2026-04-26 23:03 -34.56304 -58.40594 26 ft 6 kts 127°
2026-04-26 23:03 -34.56334 -58.40555 24 ft 6 kts 139°
2026-04-26 23:03 -34.56365 -58.40523 25 ft 5 kts 138°
2026-04-26 23:04 -34.56370 -58.40517 24 ft 0 kts 138°
2026-04-26 23:07 -34.56377 -58.40510 28 ft 3 kts 138°
2026-04-26 23:08 -34.56397 -58.40489 27 ft 4 kts 138°
2026-04-26 23:08 -34.56416 -58.40468 24 ft 3 kts 138°
2026-04-26 23:08 -34.56418 -58.40466 24 ft 0 kts 138°
2026-04-26 23:13 -34.56420 -58.40464 24 ft 0 kts 139°
2026-04-26 23:13 -34.56420 -58.40463 24 ft 0 kts 139°
2026-04-26 23:14 -34.56421 -58.40463 24 ft 1 kts 139°
2026-04-26 23:15 -34.56440 -58.40442 26 ft 9 kts 138°
2026-04-26 23:15 -34.56501 -58.40387 25 ft 11 kts 167°
2026-04-26 23:15 -34.56551 -58.40441 24 ft 11 kts 278°
2026-04-26 23:15 -34.56531 -58.40492 25 ft 1 kts 302°
2026-04-26 23:16 -34.56497 -58.40554 29 ft 38 kts 304°
2026-04-26 23:16 -34.56195 -58.41095 26 ft 114 kts 304°
2026-04-26 23:17 -34.55637 -58.42105 168 ft 159 kts 302°
2026-04-26 23:17 -34.55080 -58.43113 1325 ft 118 kts 297°
2026-04-26 23:17 -34.54517 -58.43795 1969 ft 132 kts 338°
2026-04-26 23:17 -34.53469 -58.43988 2184 ft 167 kts 341°
2026-04-26 23:18 -34.52185 -58.44138 2501 ft 210 kts
2026-04-26 23:18 -34.50757 -58.43307 2722 ft 252 kts 43°
2026-04-26 23:18 -34.49919 -58.41356 2972 ft 277 kts 83°
2026-04-26 23:18 -34.50113 -58.38993 3406 ft 288 kts 112°
2026-04-26 23:19 -34.50708 -58.36663 4304 ft 291 kts 112°
2026-04-26 23:19 -34.51303 -58.34311 5244 ft 293 kts 112°
2026-04-26 23:19 -34.51890 -58.31913 6047 ft 300 kts 112°
2026-04-26 23:19 -34.52473 -58.29462 6877 ft 304 kts 111°
2026-04-26 23:20 -34.53050 -58.26985 7739 ft 307 kts 111°
2026-04-26 23:20 -34.53634 -58.24469 8519 ft 313 kts 111°
2026-04-26 23:20 -34.54249 -58.21922 9323 ft 316 kts 112°
2026-04-26 23:20 -34.54891 -58.19353 10074 ft 322 kts 112°
2026-04-26 23:21 -34.55570 -58.16676 10412 ft 345 kts 112°
2026-04-26 23:21 -34.56304 -58.13795 10604 ft 370 kts 112°
2026-04-26 23:21 -34.57082 -58.10714 10850 ft 392 kts 111°
2026-04-26 23:21 -34.57882 -58.07509 11426 ft 401 kts 111°
2026-04-26 23:22 -34.58691 -58.04246 12092 ft 407 kts 111°
2026-04-26 23:22 -34.59512 -58.00926 12723 ft 415 kts 111°
2026-04-26 23:22 -34.60349 -57.97543 13358 ft 423 kts 111°
2026-04-26 23:22 -34.61206 -57.94080 13947 ft 432 kts 111°
2026-04-26 23:23 -34.62073 -57.90567 14658 ft 437 kts 111°
2026-04-26 23:23 -34.62951 -57.87008 15366 ft 443 kts 111°
2026-04-26 23:23 -34.63843 -57.83391 16000 ft 450 kts 111°
2026-04-26 23:23 -34.64729 -57.79791 16666 ft 453 kts 111°
2026-04-26 23:24 -34.65637 -57.76087 16891 ft 451 kts 111°
2026-04-26 23:24 -34.66540 -57.72419 16931 ft 468 kts 111°
2026-04-26 23:24 -34.67490 -57.68561 16937 ft 484 kts 111°
2026-04-26 23:24 -34.68453 -57.64625 16925 ft 486 kts 111°
2026-04-26 23:25 -34.69410 -57.60691 16919 ft 485 kts 111°
2026-04-26 23:25 -34.70367 -57.56762 16915 ft 485 kts 111°
2026-04-26 23:25 -34.71324 -57.52832 16916 ft 484 kts 110°
2026-04-26 23:25 -34.72084 -57.48838 16910 ft 487 kts 101°
2026-04-26 23:26 -34.72479 -57.44752 16921 ft 487 kts 97°
2026-04-26 23:26 -34.72752 -57.40649 16917 ft 486 kts 96°
2026-04-26 23:26 -34.72999 -57.36558 16914 ft 486 kts 96°
2026-04-26 23:26 -34.73264 -57.32463 16913 ft 485 kts 97°
2026-04-26 23:27 -34.73557 -57.28383 16919 ft 484 kts 97°
2026-04-26 23:27 -34.73882 -57.24311 16915 ft 484 kts 98°
2026-04-26 23:27 -34.74222 -57.20242 16913 ft 484 kts 98°
2026-04-26 23:27 -34.74558 -57.16205 16897 ft 474 kts 98°
2026-04-26 23:28 -34.74881 -57.12267 16891 ft 461 kts 98°
2026-04-26 23:28 -34.75184 -57.08452 16892 ft 445 kts 98°
2026-04-26 23:28 -34.75477 -57.04785 16873 ft 428 kts 98°
2026-04-26 23:28 -34.75758 -57.01234 16867 ft 416 kts 97°
2026-04-26 23:29 -34.76005 -56.97794 16892 ft 402 kts 97°
2026-04-26 23:29 -34.76315 -56.94462 16881 ft 392 kts 98°
2026-04-26 23:29 -34.76568 -56.91207 16854 ft 382 kts 97°
2026-04-26 23:29 -34.76819 -56.88039 16868 ft 370 kts 98°
2026-04-26 23:30 -34.77060 -56.84971 16852 ft 359 kts 97°
2026-04-26 23:30 -34.77297 -56.81936 16903 ft 369 kts 99°
2026-04-26 23:30 -34.77576 -56.78741 16920 ft 391 kts 98°
2026-04-26 23:30 -34.77840 -56.75364 16855 ft 406 kts 97°
2026-04-26 23:31 -34.77993 -56.71947 16857 ft 405 kts 89°
2026-04-26 23:31 -34.77690 -56.68580 16844 ft 394 kts 75°
2026-04-26 23:31 -34.77058 -56.65364 16734 ft 390 kts 75°
2026-04-26 23:31 -34.76542 -56.62174 16637 ft 377 kts 78°
2026-04-26 23:32 -34.76079 -56.59101 16494 ft 360 kts 76°
2026-04-26 23:32 -34.75584 -56.56162 16267 ft 352 kts 74°
2026-04-26 23:32 -34.75045 -56.53269 15965 ft 349 kts 72°
2026-04-26 23:32 -34.74533 -56.50394 15637 ft 345 kts 76°
2026-04-26 23:33 -34.74077 -56.47530 15129 ft 345 kts 76°
2026-04-26 23:33 -34.73641 -56.44675 14671 ft 342 kts 77°
2026-04-26 23:33 -34.73203 -56.41867 14194 ft 341 kts 75°
2026-04-26 23:33 -34.72701 -56.39031 13796 ft 339 kts 75°
2026-04-26 23:34 -34.72245 -56.36274 13392 ft 336 kts 73°
2026-04-26 23:34 -34.71758 -56.33508 13026 ft 335 kts 77°
2026-04-26 23:34 -34.71338 -56.30706 12711 ft 329 kts 75°
2026-04-26 23:34 -34.70841 -56.28044 12311 ft 325 kts 65°
2026-04-26 23:35 -34.69925 -56.25564 12014 ft 320 kts 57°
2026-04-26 23:35 -34.69008 -56.23132 11668 ft 314 kts 58°
2026-04-26 23:35 -34.68103 -56.20705 11224 ft 316 kts 59°
2026-04-26 23:35 -34.67168 -56.18292 10951 ft 316 kts 58°
2026-04-26 23:36 -34.66225 -56.15906 10834 ft 308 kts 58°
2026-04-26 23:36 -34.65310 -56.13578 10467 ft 305 kts 58°
2026-04-26 23:36 -34.64379 -56.11265 10086 ft 304 kts 58°
2026-04-26 23:36 -34.63438 -56.08984 9740 ft 300 kts 58°
2026-04-26 23:37 -34.62494 -56.06737 9389 ft 297 kts 58°
2026-04-26 23:37 -34.61543 -56.04518 9024 ft 295 kts 58°
2026-04-26 23:37 -34.60584 -56.02329 8697 ft 291 kts 58°
2026-04-26 23:37 -34.59630 -56.00169 8310 ft 290 kts 58°
2026-04-26 23:38 -34.58672 -55.98014 7931 ft 289 kts 58°
2026-04-26 23:38 -34.57721 -55.95876 7589 ft 286 kts 58°
2026-04-26 23:38 -34.56778 -55.93753 7149 ft 287 kts 58°
2026-04-26 23:38 -34.55814 -55.91588 6538 ft 296 kts 58°
2026-04-26 23:39 -34.54820 -55.89377 5927 ft 302 kts 58°
2026-04-26 23:39 -34.53802 -55.87130 5310 ft 306 kts 58°
2026-04-26 23:39 -34.52767 -55.84857 4688 ft 309 kts 58°
2026-04-26 23:39 -34.51714 -55.82565 4068 ft 312 kts 58°
2026-04-26 23:40 -34.50667 -55.80257 3441 ft 313 kts 63°
2026-04-26 23:40 -34.50166 -55.77719 3052 ft 305 kts 92°
2026-04-26 23:40 -34.50598 -55.75331 2991 ft 279 kts 121°
2026-04-26 23:40 -34.51730 -55.73589 2985 ft 252 kts 144°
2026-04-26 23:41 -34.53021 -55.72231 2989 ft 248 kts 147°
2026-04-26 23:41 -34.54337 -55.70891 2978 ft 243 kts 147°
2026-04-26 23:41 -34.55608 -55.69599 2968 ft 234 kts 147°
2026-04-26 23:41 -34.56828 -55.68370 2970 ft 219 kts 153°
2026-04-26 23:42 -34.58115 -55.67862 2973 ft 179 kts 199°
2026-04-26 23:42 -34.60119 -55.69304 2985 ft 163 kts 231°
2026-04-26 23:42 -34.60889 -55.70288 2983 ft 160 kts 232°
2026-04-26 23:43 -34.61661 -55.71258 2981 ft 159 kts 232°
2026-04-26 23:43 -34.62426 -55.72212 2980 ft 156 kts 232°
2026-04-26 23:43 -34.63176 -55.73143 2982 ft 152 kts 233°
2026-04-26 23:43 -34.63927 -55.74079 2990 ft 158 kts 232°
2026-04-26 23:44 -34.64703 -55.75041 2992 ft 161 kts 231°
2026-04-26 23:44 -34.65491 -55.76012 2998 ft 161 kts 232°
2026-04-26 23:44 -34.66273 -55.76979 2999 ft 160 kts 232°
2026-04-26 23:44 -34.67056 -55.77945 2997 ft 162 kts 232°
2026-04-26 23:45 -34.67849 -55.78924 2999 ft 162 kts 232°
2026-04-26 23:45 -34.68635 -55.79894 3000 ft 163 kts 232°
2026-04-26 23:45 -34.69434 -55.80870 2998 ft 162 kts 232°
2026-04-26 23:45 -34.70227 -55.81838 3001 ft 161 kts 232°
2026-04-26 23:46 -34.71016 -55.82807 2997 ft 161 kts 232°
2026-04-26 23:46 -34.71790 -55.83760 2981 ft 155 kts 231°
2026-04-26 23:46 -34.72540 -55.84682 2989 ft 151 kts 233°
2026-04-26 23:46 -34.73194 -55.85616 2994 ft 140 kts 238°
2026-04-26 23:47 -34.73781 -55.86555 2999 ft 142 kts 239°
2026-04-26 23:47 -34.74376 -55.87531 2894 ft 143 kts 239°
2026-04-26 23:47 -34.74946 -55.88464 2685 ft 130 kts 239°
2026-04-26 23:47 -34.75457 -55.89305 2513 ft 118 kts 240°
2026-04-26 23:48 -34.75945 -55.90109 2369 ft 120 kts 238°
2026-04-26 23:48 -34.76440 -55.90923 2221 ft 120 kts 238°
2026-04-26 23:48 -34.76937 -55.91743 2067 ft 121 kts 238°
2026-04-26 23:48 -34.77429 -55.92556 1903 ft 121 kts 239°
2026-04-26 23:49 -34.77937 -55.93387 1741 ft 121 kts 238°
2026-04-26 23:49 -34.78430 -55.94196 1590 ft 120 kts 238°
2026-04-26 23:49 -34.78934 -55.95028 1429 ft 125 kts 237°
2026-04-26 23:49 -34.79460 -55.95890 1269 ft 129 kts 237°
2026-04-26 23:50 -34.80007 -55.96789 1082 ft 134 kts 237°
2026-04-26 23:50 -34.80561 -55.97697 903 ft 133 kts 237°
2026-04-26 23:50 -34.81112 -55.98602 725 ft 135 kts 236°
2026-04-26 23:50 -34.81673 -55.99518 548 ft 134 kts 236°
2026-04-26 23:51 -34.82224 -56.00401 342 ft 130 kts 232°
2026-04-26 23:51 -34.82805 -56.01312 475 ft 131 kts 228°
2026-04-26 23:51 -34.83286 -56.02160 984 ft 118 kts 241°
2026-04-26 23:51 -34.83754 -56.03078 1419 ft 141 kts 241°
2026-04-26 23:52 -34.84395 -56.04114 1850 ft 167 kts 225°
2026-04-26 23:52 -34.85515 -56.04760 2393 ft 193 kts 195°
2026-04-26 23:52 -34.86928 -56.04490 2823 ft 228 kts 163°
2026-04-26 23:52 -34.88370 -56.03193 2594 ft 288 kts 144°
2026-04-26 23:53 -34.90141 -56.02065 3026 ft 287 kts 175°
2026-04-26 23:53 -34.92021 -56.02149 3011 ft 257 kts 204°
2026-04-26 23:53 -34.93720 -56.02637 2991 ft 249 kts 191°
2026-04-26 23:53 -34.95413 -56.02644 2992 ft 236 kts 189°
2026-04-26 23:54 -34.97003 -56.02682 2984 ft 221 kts 191°
2026-04-26 23:54 -34.98475 -56.02741 2985 ft 208 kts 192°
2026-04-26 23:54 -34.99889 -56.02807 2979 ft 193 kts 192°
2026-04-26 23:54 -35.01201 -56.02854 3004 ft 196 kts 192°
2026-04-26 23:55 -35.02673 -56.02723 3023 ft 238 kts 170°
2026-04-26 23:55 -35.04144 -56.01464 3022 ft 282 kts 135°
2026-04-26 23:55 -35.04997 -55.99247 3008 ft 298 kts 103°
2026-04-26 23:55 -35.04927 -55.96734 2987 ft 299 kts 72°
2026-04-26 23:56 -35.03895 -55.94597 2993 ft 290 kts 38°
2026-04-26 23:56 -35.02299 -55.93162 3005 ft 284 kts 25°
2026-04-26 23:56 -35.00582 -55.91961 2993 ft 284 kts 22°
2026-04-26 23:56 -34.98849 -55.90791 2994 ft 285 kts 22°
2026-04-26 23:57 -34.97114 -55.89603 2980 ft 286 kts 23°
2026-04-26 23:57 -34.95392 -55.88393 2985 ft 286 kts 24°
2026-04-26 23:57 -34.93680 -55.87166 2995 ft 285 kts 24°
2026-04-26 23:57 -34.91978 -55.85934 2984 ft 284 kts 25°
2026-04-26 23:58 -34.90287 -55.84705 2992 ft 283 kts 25°
2026-04-26 23:58 -34.88605 -55.83474 2989 ft 282 kts 25°
2026-04-26 23:58 -34.86919 -55.82240 2981 ft 282 kts 25°
2026-04-26 23:58 -34.85806 -55.81427 2994 ft 282 kts 25°
2026-04-26 23:59 -34.84125 -55.80193 2992 ft 283 kts 25°
2026-04-26 23:59 -34.81784 -55.78875 2985 ft 269 kts
2026-04-26 23:59 -34.80579 -55.78886 3006 ft 257 kts 341°
2026-04-26 23:59 -34.78942 -55.79587 2993 ft 244 kts 322°
2026-04-27 00:00 -34.77593 -55.80732 2988 ft 229 kts 316°
2026-04-27 00:00 -34.76344 -55.81860 2979 ft 217 kts 315°
2026-04-27 00:00 -34.75178 -55.82912 2993 ft 200 kts 315°
2026-04-27 00:00 -34.74227 -55.83993 2981 ft 176 kts 295°
2026-04-27 00:01 -34.74091 -55.85329 2988 ft 161 kts 252°
2026-04-27 00:01 -34.74475 -55.86560 2911 ft 152 kts 256°
2026-04-27 00:01 -34.74854 -55.87749 2745 ft 154 kts 245°
2026-04-27 00:01 -34.75378 -55.88876 2549 ft 145 kts 244°
2026-04-27 00:02 -34.75876 -55.89865 2362 ft 133 kts 241°
2026-04-27 00:02 -34.76383 -55.90762 2195 ft 126 kts 239°
2026-04-27 00:02 -34.76886 -55.91614 2052 ft 122 kts 238°
2026-04-27 00:02 -34.77379 -55.92434 1880 ft 118 kts 238°
2026-04-27 00:03 -34.77871 -55.93250 1725 ft 122 kts 238°
2026-04-27 00:03 -34.78388 -55.94106 1563 ft 129 kts 238°
2026-04-27 00:03 -34.78932 -55.95001 1383 ft 133 kts 237°
2026-04-27 00:03 -34.79478 -55.95900 1203 ft 130 kts 237°
2026-04-27 00:04 -34.80011 -55.96778 1034 ft 128 kts 238°
2026-04-27 00:04 -34.80535 -55.97646 838 ft 126 kts 238°
2026-04-27 00:04 -34.81060 -55.98516 697 ft 127 kts 236°
2026-04-27 00:04 -34.81589 -55.99396 551 ft 128 kts 231°
2026-04-27 00:05 -34.82141 -56.00266 406 ft 131 kts 239°
2026-04-27 00:05 -34.82670 -56.01152 216 ft 130 kts 232°
2026-04-27 00:05 -34.83176 -56.01996 83 ft 110 kts 233°
2026-04-27 00:05 -34.83503 -56.02537 92 ft 60 kts 233°
2026-04-27 00:06 -34.83663 -56.02793 87 ft 15 kts 232°
2026-04-27 00:06 -34.83745 -56.02855 80 ft 14 kts 181°
2026-04-27 00:06 -34.83836 -56.02849 74 ft 14 kts 176°
2026-04-27 00:06 -34.83935 -56.02808 61 ft 15 kts 148°
2026-04-27 00:07 -34.83975 -56.02726 59 ft 11 kts 70°
2026-04-27 00:07 -34.83950 -56.02639 58 ft 11 kts 82°
2026-04-27 00:07 -34.83946 -56.02549 57 ft 10 kts 90°
2026-04-27 00:07 -34.83946 -56.02463 58 ft 10 kts 91°
2026-04-27 00:08 -34.83947 -56.02378 56 ft 10 kts 90°
2026-04-27 00:08 -34.83948 -56.02296 55 ft 10 kts 90°
2026-04-27 00:08 -34.83906 -56.02246 60 ft 9 kts
2026-04-27 00:08 -34.83833 -56.02240 63 ft 13 kts
2026-04-27 00:09 -34.83755 -56.02196 73 ft 13 kts 52°
2026-04-27 00:09 -34.83703 -56.02110 73 ft 12 kts 53°
2026-04-27 00:09 -34.83657 -56.02034 73 ft 10 kts 53°
2026-04-27 00:09 -34.83618 -56.01969 66 ft 10 kts 53°
2026-04-27 00:10 -34.83579 -56.01906 71 ft 9 kts 53°
2026-04-27 00:10 -34.83539 -56.01842 70 ft 9 kts 53°
2026-04-27 00:10 -34.83503 -56.01781 73 ft 9 kts 53°
2026-04-27 00:10 -34.83478 -56.01718 65 ft 9 kts 106°
2026-04-27 00:11 -34.83520 -56.01673 65 ft 8 kts 143°
2026-04-27 00:11 -34.83547 -56.01649 69 ft 2 kts 143°
2026-04-27 00:11 -34.83548 -56.01648 69 ft 0 kts 143°